World > North America > United States > Ohio > Stratton  

Stratton, OH Hourly Weather Updates

Feedback E-mail the Weather

Quick Clicks

Stratton, OH Weather Maps

°F °C°F °C
Stratton Weather Map
UTC Time: 6/19/2024, 22:49
Your Time:

Stratton, OH Regional Weather

Expires:202406192300;;316022
ASUS41 KCLE 192212
RWRCLE
OHIO REGIONAL WEATHER ROUNDUP
NATIONAL WEATHER SERVICE WILMINGTON, OH
600 PM EDT WED JUN 19 2024

NOTE: "FAIR" INDICATES FEW OR NO CLOUDS BELOW 12,000 FEET WITH NO
SIGNIFICANT WEATHER AND/OR OBSTRUCTIONS TO VISIBILITY.


OHZ036-037-039>041-045>050-054>059-063>069-073>076-082>088-192300-
  CENTRAL AND SOUTHEAST OHIO
  
CITY           SKY/WX    TMP DP  RH WIND       PRES   REMARKS
COLUMBUS       PTSUNNY   89  70  53 SE9       30.25S HX  94           
OSU AIRPORT    FAIR      91  70  49 SE7       30.25S HX  96           
BOLTON FIELD   SUNNY     88  70  55 S12       30.26S HX  92           
RICKENBACK AFB FAIR      87  70  56 SE8       30.26S HX  92           
NEWARK         FAIR      85  70  60 SE7       30.27S                  
MARION         FAIR      90  71  53 S9        30.25S HX  96           
LANCASTER      FAIR      83  72  69 S6        30.27F                  
ZANESVILLE     FAIR      85  71  63 SW3       30.27F HX  90           
NEW PHILLY     FAIR      84  74  71 S5        30.28F HX  91           
$$
  

SKY/WX - Weather  TMP - Temperature  DP - Dew Point  RH - Humidity
WIND - Wind Direction/Speed PRES - Barometric Pressure VSB - Visibility
WCI - Wind Chill Index E13G22 Wind - East Wind 13 mph/Gusts of 22 mph

Trending Headlines

Trending Entertainment Headlines

Stratton Radar Loop

Use the map search tool if you want to place a location marker on the radar map...

Stratton Quick Facts

National Two Day Weather Forecast


E-mail the Stratton Weather Forecast

Voice your opinion or tell us about page issues...